Williston, ND

8:42 PM CDT on July 27, 2017 (GMT -0500)
Sloulin International

Weather History for KISN - October, 2012

Change the Weather History Date:

Friday, October 5, 2012

  Actual Average Record
Temperature  
Mean Temperature 34 °F 48 °F  
Max Temperature 42 °F 62 °F 86 °F (1920)
Min Temperature 25 °F 34 °F 16 °F (2013)
Degree Days  
Heating Degree Days 31 17  
Month to date heating degree days 105 81  
Since 1 July heating degree days 333 427  
Cooling Degree Days 0 0  
Month to date cooling degree days 0 0  
Year to date cooling degree days 532 455  
Moisture  
Dew Point 21 °F    
Average Humidity 65    
Maximum Humidity 92    
Minimum Humidity 38    
Precipitation  
Precipitation 0.00 in 0.03 in 0.87 in (1937)
Month to date precipitation 0.70 0.17  
Year to date precipitation 10.29 12.35  
Sea Level Pressure  
Sea Level Pressure 30.47 in    
Wind  
Wind Speed 8 mph (NNW)    
Max Wind Speed 21 mph    
Max Gust Speed 24 mph    
Visibility 10 miles    
Events      
T = Trace of Precipitation, MM = Missing Value Source: NWS Daily Summary

Daily Weather History Graph

Daily Weather History Graph

Search for Another Location

Airport or City:

Trip Planner

Search our weather history database for the weather conditions in past years. The results will help you decide how hot, cold, wet, or windy it might be!

Date:

Astronomy

Oct. 05, 2012 Rise Set
Actual Time 8:00 AM CDT 7:24 PM CDT
Civil Twilight 7:29 AM CDT 7:55 PM CDT
Nautical Twilight 6:53 AM CDT 8:31 PM CDT
Astronomical Twilight 6:16 AM CDT 9:07 PM CDT
Moon 10:28 PM CDT (10/5) 1:31 PM CDT (10/5)
Length of Visible Light 12h 26m
Length of Day
11h 24m
Waning Gibbous, 74% of the Moon is Illuminated
Oct 5
Waning Gibbous
Oct 8
Last Quarter
Oct 15
New
Oct 21
First Quarter
Oct 29
Full

Hourly Weather History & Observations

Time (CDT) Temp. Windchill Dew Point Humidity Pressure Visibility Wind Dir Wind Speed Gust Speed Precip Events Conditions
12:52 AM 28.9 °F 22.8 °F 23.0 °F 78% 30.45 in 10.0 mi NNW 5.8 mph - N/A   Partly Cloudy
1:52 AM 28.0 °F - 23.0 °F 81% 30.45 in 10.0 mi Calm Calm - N/A   Clear
2:52 AM 26.1 °F 17.6 °F 23.0 °F 88% 30.46 in 10.0 mi WNW 8.1 mph - N/A   Clear
3:52 AM 28.9 °F 20.4 °F 24.1 °F 82% 30.45 in 10.0 mi WNW 9.2 mph - N/A   Overcast
4:52 AM 28.0 °F 19.3 °F 23.0 °F 81% 30.46 in 10.0 mi North 9.2 mph - N/A   Overcast
5:52 AM 26.1 °F 21.9 °F 21.9 °F 84% 30.46 in 10.0 mi NNW 3.5 mph - N/A   Mostly Cloudy
6:52 AM 26.1 °F - 23.0 °F 88% 30.47 in 10.0 mi Calm Calm - N/A   Overcast
7:52 AM 27.0 °F - 24.1 °F 89% 30.47 in 10.0 mi Calm Calm - N/A   Overcast
8:52 AM 30.0 °F 22.4 °F 23.0 °F 75% 30.47 in 10.0 mi NNW 8.1 mph - N/A   Overcast
9:52 AM 33.8 °F 25.3 °F 21.2 °F 60% 30.41 in 10.0 mi NNW 11.5 mph - N/A   Overcast
10:52 AM 35.1 °F 25.9 °F 19.0 °F 52% 30.49 in 10.0 mi NNW 13.8 mph - N/A   Mostly Cloudy
11:52 AM 35.6 °F 27.5 °F 19.4 °F 52% 30.42 in 10.0 mi North 11.5 mph 19.6 mph N/A   Mostly Cloudy
12:52 PM 37.9 °F 30.5 °F 19.9 °F 48% 30.49 in 10.0 mi NNW 11.5 mph 21.9 mph N/A   Partly Cloudy
1:52 PM 39.2 °F 31.6 °F 19.4 °F 45% 30.41 in 10.0 mi North 12.7 mph - N/A   Partly Cloudy
2:52 PM 39.9 °F 32.1 °F 19.9 °F 45% 30.47 in 10.0 mi NNW 13.8 mph 20.7 mph N/A   Clear
3:52 PM 41.0 °F 33.5 °F 19.0 °F 41% 30.45 in 10.0 mi NNW 13.8 mph 21.9 mph N/A   Clear
4:52 PM 41.0 °F 32.5 °F 18.0 °F 40% 30.45 in 10.0 mi NNW 17.3 mph 24.2 mph N/A   Clear
5:52 PM 39.0 °F 30.3 °F 17.1 °F 41% 30.46 in 10.0 mi North 16.1 mph - N/A   Clear
6:52 PM 36.0 °F 28.0 °F 16.0 °F 44% 30.48 in 10.0 mi North 11.5 mph - N/A   Clear
7:52 PM 30.9 °F 25.2 °F 18.0 °F 59% 30.50 in 10.0 mi NNW 5.8 mph - N/A   Clear
8:52 PM 30.9 °F 24.3 °F 19.9 °F 64% 30.50 in 10.0 mi North 6.9 mph - N/A   Mostly Cloudy
9:52 PM 30.9 °F 26.2 °F 21.0 °F 67% 30.51 in 10.0 mi North 4.6 mph - N/A   Overcast
10:52 PM 30.0 °F 26.5 °F 21.9 °F 72% 30.50 in 10.0 mi North 3.5 mph - N/A   Overcast
11:52 PM 30.0 °F - 23.0 °F 75% 30.50 in 10.0 mi Calm Calm - N/A   Overcast